Location: Luz Observatory
(34.5000°N, 117.2833°W)
Time: 21:49:35
(UTC-07:00)

Cosmos 1484 Rocket - Visible Passes

Search period start: 30 June 2015 00:00
Search period end: 10 July 2015 00:00
Orbit: 510 x 568 km, 97.4° (Epoch: 30 June)

Date Brightness Start Highest point End Pass type
(mag) Time Alt. Az. Time Alt. Az. Time Alt. Az.
30 Jun 5.7 20:53:19 10° SW 20:55:19 13° W 20:57:07 10° WNW visible
01 Jul 5.5 20:45:05 10° SW 20:47:37 17° W 20:50:02 10° NW visible
02 Jul 5.3 20:37:01 10° SW 20:39:57 21° W 20:42:46 10° NW visible
03 Jul 5.0 20:29:04 10° SSW 20:32:17 26° W 20:35:25 10° NW visible
